Year,Month,Day,Hour,Minute,Value (Times are PST for temperature in C)
2006,05,25,00,00,12.90
2006,05,25,00,01,12.90
2006,05,25,00,02,12.80
2006,05,25,00,03,12.80
2006,05,25,00,04,12.80
2006,05,25,00,05,12.80
2006,05,25,00,06,12.80
2006,05,25,00,07,12.80
2006,05,25,00,08,12.80
2006,05,25,00,09,12.80
2006,05,25,00,10,12.80
2006,05,25,00,11,12.80
2006,05,25,00,12,12.70
2006,05,25,00,13,12.70
2006,05,25,00,14,12.70
2006,05,25,00,15,12.70
2006,05,25,00,16,12.60
2006,05,25,00,17,12.60
2006,05,25,00,18,12.60
2006,05,25,00,19,12.60
2006,05,25,00,20,12.50
2006,05,25,00,21,12.50
2006,05,25,00,22,12.50
2006,05,25,00,23,12.40
2006,05,25,00,24,12.40
2006,05,25,00,25,12.40
2006,05,25,00,26,12.40
2006,05,25,00,27,12.40
2006,05,25,00,28,12.40
2006,05,25,00,29,12.40
2006,05,25,00,30,12.40
2006,05,25,00,31,12.40
2006,05,25,00,32,12.30
2006,05,25,00,33,12.30
2006,05,25,00,34,12.30
2006,05,25,00,35,12.30
2006,05,25,00,36,12.30
2006,05,25,00,37,12.30
2006,05,25,00,38,12.30
2006,05,25,00,39,12.30
2006,05,25,00,40,12.30
2006,05,25,00,41,12.30
2006,05,25,00,42,12.30
2006,05,25,00,43,12.30
2006,05,25,00,44,12.30
2006,05,25,00,45,12.30
2006,05,25,00,46,12.30
2006,05,25,00,47,12.30
2006,05,25,00,48,12.40
2006,05,25,00,49,12.40
2006,05,25,00,50,12.40
2006,05,25,00,51,12.40
2006,05,25,00,52,12.40
2006,05,25,00,53,12.40
2006,05,25,00,54,12.40
2006,05,25,00,55,12.40
2006,05,25,00,56,12.40
2006,05,25,00,57,12.40
2006,05,25,00,58,12.40
2006,05,25,00,59,12.40
2006,05,25,01,00,12.40
2006,05,25,01,01,12.40
2006,05,25,01,02,12.40
2006,05,25,01,03,12.30
2006,05,25,01,04,12.30
2006,05,25,01,05,12.30
2006,05,25,01,06,12.30
2006,05,25,01,07,12.30
2006,05,25,01,08,12.30
2006,05,25,01,09,12.30
2006,05,25,01,10,12.30
2006,05,25,01,11,12.30
2006,05,25,01,12,12.30
2006,05,25,01,13,12.30
2006,05,25,01,14,12.30
2006,05,25,01,15,12.30
2006,05,25,01,16,12.30
2006,05,25,01,17,12.30
2006,05,25,01,18,12.30
2006,05,25,01,19,12.30
2006,05,25,01,20,12.30
2006,05,25,01,21,12.30
2006,05,25,01,22,12.30
2006,05,25,01,23,12.30
2006,05,25,01,24,12.30
2006,05,25,01,25,12.30
2006,05,25,01,26,12.30
2006,05,25,01,27,12.30
2006,05,25,01,28,12.30
2006,05,25,01,29,12.20
2006,05,25,01,30,12.20
2006,05,25,01,31,12.20
2006,05,25,01,32,12.20
2006,05,25,01,33,12.30
2006,05,25,01,34,12.30
2006,05,25,01,35,12.30
2006,05,25,01,36,12.30
2006,05,25,01,37,12.30
2006,05,25,01,38,12.30
2006,05,25,01,39,12.30
2006,05,25,01,40,12.30
2006,05,25,01,41,12.30
2006,05,25,01,42,12.30
2006,05,25,01,43,12.40
2006,05,25,01,44,12.40
2006,05,25,01,45,12.40
2006,05,25,01,46,12.40
2006,05,25,01,47,12.40
2006,05,25,01,48,12.40
2006,05,25,01,49,12.40
2006,05,25,01,50,12.40
2006,05,25,01,51,12.40
2006,05,25,01,52,12.30
2006,05,25,01,53,12.30
2006,05,25,01,54,12.30
2006,05,25,01,55,12.30
2006,05,25,01,56,12.30
2006,05,25,01,57,12.30
2006,05,25,01,58,12.30
2006,05,25,01,59,12.30
2006,05,25,02,00,12.30
2006,05,25,02,01,12.30
2006,05,25,02,02,12.30
2006,05,25,02,03,12.30
2006,05,25,02,04,12.30
2006,05,25,02,05,12.30
2006,05,25,02,06,12.30
2006,05,25,02,07,12.20
2006,05,25,02,08,12.20
2006,05,25,02,09,12.10
2006,05,25,02,10,12.00
2006,05,25,02,11,12.00
2006,05,25,02,12,11.90
2006,05,25,02,13,11.90
2006,05,25,02,14,11.80
2006,05,25,02,15,11.80
2006,05,25,02,16,11.80
2006,05,25,02,17,11.80
2006,05,25,02,18,11.70
2006,05,25,02,19,11.70
2006,05,25,02,20,11.60
2006,05,25,02,21,11.60
2006,05,25,02,22,11.60
2006,05,25,02,23,11.60
2006,05,25,02,24,11.50
2006,05,25,02,25,11.40
2006,05,25,02,26,11.40
2006,05,25,02,27,11.40
2006,05,25,02,28,11.40
2006,05,25,02,29,11.40
2006,05,25,02,30,11.40
2006,05,25,02,31,11.30
2006,05,25,02,32,11.30
2006,05,25,02,33,11.30
2006,05,25,02,34,11.20
2006,05,25,02,35,11.20
2006,05,25,02,36,11.20
2006,05,25,02,37,11.10
2006,05,25,02,38,11.10
2006,05,25,02,39,11.10
2006,05,25,02,40,11.10
2006,05,25,02,41,11.10
2006,05,25,02,42,11.00
2006,05,25,02,43,10.90
2006,05,25,02,44,10.90
2006,05,25,02,45,10.90
2006,05,25,02,46,10.90
2006,05,25,02,47,10.90
2006,05,25,02,48,10.80
2006,05,25,02,49,10.80
2006,05,25,02,50,10.80
2006,05,25,02,51,10.70
2006,05,25,02,52,10.70
2006,05,25,02,53,10.70
2006,05,25,02,54,10.70
2006,05,25,02,55,10.70
2006,05,25,02,56,10.70
2006,05,25,02,57,10.70
2006,05,25,02,58,10.70
2006,05,25,02,59,10.70
2006,05,25,03,00,10.70
2006,05,25,03,01,10.60
2006,05,25,03,02,10.60
2006,05,25,03,03,10.60
2006,05,25,03,04,10.60
2006,05,25,03,05,10.60
2006,05,25,03,06,10.60
2006,05,25,03,07,10.60
2006,05,25,03,08,10.60
2006,05,25,03,09,10.60
2006,05,25,03,10,10.60
2006,05,25,03,11,10.60
2006,05,25,03,12,10.60
2006,05,25,03,13,10.60
2006,05,25,03,14,10.60
2006,05,25,03,15,10.60
2006,05,25,03,16,10.60
2006,05,25,03,17,10.60
2006,05,25,03,18,10.60
2006,05,25,03,19,10.60
2006,05,25,03,20,10.60
2006,05,25,03,21,10.60
2006,05,25,03,22,10.60
2006,05,25,03,23,10.60
2006,05,25,03,24,10.60
2006,05,25,03,25,10.50
2006,05,25,03,26,10.40
2006,05,25,03,27,10.40
2006,05,25,03,28,10.40
2006,05,25,03,29,10.40
2006,05,25,03,30,10.40
2006,05,25,03,31,10.40
2006,05,25,03,32,10.40
2006,05,25,03,33,10.40
2006,05,25,03,34,10.40
2006,05,25,03,35,10.40
2006,05,25,03,36,10.40
2006,05,25,03,37,10.40
2006,05,25,03,38,10.40
2006,05,25,03,39,10.40
2006,05,25,03,40,10.40
2006,05,25,03,41,10.40
2006,05,25,03,42,10.40
2006,05,25,03,43,10.40
2006,05,25,03,44,10.40
2006,05,25,03,45,10.40
2006,05,25,03,46,10.40
2006,05,25,03,47,10.40
2006,05,25,03,48,10.40
2006,05,25,03,49,10.40
2006,05,25,03,50,10.40
2006,05,25,03,51,10.40
2006,05,25,03,52,10.40
2006,05,25,03,53,10.40
2006,05,25,03,54,10.40
2006,05,25,03,55,10.40
2006,05,25,03,56,10.40
2006,05,25,03,57,10.30
2006,05,25,03,58,10.30
2006,05,25,03,59,10.40
2006,05,25,04,00,10.40
2006,05,25,04,01,10.30
2006,05,25,04,02,10.30
2006,05,25,04,03,10.30
2006,05,25,04,04,10.30
2006,05,25,04,05,10.30
2006,05,25,04,06,10.20
2006,05,25,04,07,10.20
2006,05,25,04,08,10.20
2006,05,25,04,09,10.20
2006,05,25,04,10,10.20
2006,05,25,04,11,10.10
2006,05,25,04,12,10.10
2006,05,25,04,13,10.10
2006,05,25,04,14,10.10
2006,05,25,04,15,10.10
2006,05,25,04,16,10.10
2006,05,25,04,17,10.10
2006,05,25,04,18,10.10
2006,05,25,04,19,10.10
2006,05,25,04,20,10.10
2006,05,25,04,21,10.10
2006,05,25,04,22,10.10
2006,05,25,04,23,10.00
2006,05,25,04,24,9.90
2006,05,25,04,25,9.90
2006,05,25,04,26,9.90
2006,05,25,04,27,9.90
2006,05,25,04,28,9.90
2006,05,25,04,29,9.90
2006,05,25,04,30,9.90
2006,05,25,04,31,9.90
2006,05,25,04,32,9.80
2006,05,25,04,33,9.80
2006,05,25,04,34,9.80
2006,05,25,04,35,9.70
2006,05,25,04,36,9.70
2006,05,25,04,37,9.70
2006,05,25,04,38,9.70
2006,05,25,04,39,9.70
2006,05,25,04,40,9.70
2006,05,25,04,41,9.70
2006,05,25,04,42,9.70
2006,05,25,04,43,9.70
2006,05,25,04,44,9.70
2006,05,25,04,45,9.70
2006,05,25,04,46,9.70
2006,05,25,04,47,9.70
2006,05,25,04,48,9.70
2006,05,25,04,49,9.70
2006,05,25,04,50,9.70
2006,05,25,04,51,9.70
2006,05,25,04,52,9.70
2006,05,25,04,53,9.70
2006,05,25,04,54,9.70
2006,05,25,04,55,9.70
2006,05,25,04,56,9.70
2006,05,25,04,57,9.70
2006,05,25,04,58,9.70
2006,05,25,04,59,9.70
2006,05,25,05,00,9.70
2006,05,25,05,01,9.70
2006,05,25,05,02,9.70
2006,05,25,05,03,9.70
2006,05,25,05,04,9.70
2006,05,25,05,05,9.70
2006,05,25,05,06,9.70
2006,05,25,05,07,9.60
2006,05,25,05,08,9.60
2006,05,25,05,09,9.60
2006,05,25,05,10,9.60
2006,05,25,05,11,9.50
2006,05,25,05,12,9.50
2006,05,25,05,13,9.50
2006,05,25,05,14,9.50
2006,05,25,05,15,9.40
2006,05,25,05,16,9.40
2006,05,25,05,17,9.40
2006,05,25,05,18,9.40
2006,05,25,05,19,9.40
2006,05,25,05,20,9.40
2006,05,25,05,21,9.40
2006,05,25,05,22,9.30
2006,05,25,05,23,9.30
2006,05,25,05,24,9.30
2006,05,25,05,25,9.30
2006,05,25,05,26,9.30
2006,05,25,05,27,9.30
2006,05,25,05,28,9.30
2006,05,25,05,29,9.30
2006,05,25,05,30,9.30
2006,05,25,05,31,9.30
2006,05,25,05,32,9.30
2006,05,25,05,33,9.30
2006,05,25,05,34,9.30
2006,05,25,05,35,9.30
2006,05,25,05,36,9.30
2006,05,25,05,37,9.30
2006,05,25,05,38,9.30
2006,05,25,05,39,9.30
2006,05,25,05,40,9.30
2006,05,25,05,41,9.30
2006,05,25,05,42,9.30
2006,05,25,05,43,9.30
2006,05,25,05,44,9.30
2006,05,25,05,45,9.30
2006,05,25,05,46,9.30
2006,05,25,05,47,9.30
2006,05,25,05,48,9.30
2006,05,25,05,49,9.30
2006,05,25,05,50,9.30
2006,05,25,05,51,9.30
2006,05,25,05,52,9.30
2006,05,25,05,53,9.30
2006,05,25,05,54,9.30
2006,05,25,05,55,9.30
2006,05,25,05,56,9.30
2006,05,25,05,57,9.30
2006,05,25,05,58,9.30
2006,05,25,05,59,9.30
2006,05,25,06,00,9.40
2006,05,25,06,01,9.40
2006,05,25,06,02,9.40
2006,05,25,06,03,9.40
2006,05,25,06,04,9.40
2006,05,25,06,05,9.40
2006,05,25,06,06,9.40
2006,05,25,06,07,9.40
2006,05,25,06,08,9.40
2006,05,25,06,09,9.40
2006,05,25,06,10,9.40
2006,05,25,06,11,9.50
2006,05,25,06,12,9.50
2006,05,25,06,13,9.50
2006,05,25,06,14,9.50
2006,05,25,06,15,9.50
2006,05,25,06,16,9.60
2006,05,25,06,17,9.60
2006,05,25,06,18,9.60
2006,05,25,06,19,9.60
2006,05,25,06,20,9.60
2006,05,25,06,21,9.70
2006,05,25,06,22,9.70
2006,05,25,06,23,9.70
2006,05,25,06,24,9.70
2006,05,25,06,25,9.80
2006,05,25,06,26,9.80
2006,05,25,06,27,9.80
2006,05,25,06,28,9.80
2006,05,25,06,29,9.80
2006,05,25,06,30,9.80
2006,05,25,06,31,9.80
2006,05,25,06,32,9.80
2006,05,25,06,33,9.80
2006,05,25,06,34,9.80
2006,05,25,06,35,9.80
2006,05,25,06,36,9.80
2006,05,25,06,37,9.80
2006,05,25,06,38,9.80
2006,05,25,06,39,9.90
2006,05,25,06,40,9.90
2006,05,25,06,41,9.90
2006,05,25,06,42,9.90
2006,05,25,06,43,9.90
2006,05,25,06,44,9.90
2006,05,25,06,45,9.90
2006,05,25,06,46,9.90
2006,05,25,06,47,9.90
2006,05,25,06,48,9.90
2006,05,25,06,49,9.90
2006,05,25,06,50,9.90
2006,05,25,06,51,9.90
2006,05,25,06,52,10.00
2006,05,25,06,53,10.10
2006,05,25,06,54,10.10
2006,05,25,06,55,10.10
2006,05,25,06,56,10.10
2006,05,25,06,57,10.10
2006,05,25,06,58,10.10
2006,05,25,06,59,10.10
2006,05,25,07,00,10.10
2006,05,25,07,01,10.10
2006,05,25,07,02,10.10
2006,05,25,07,03,10.10
2006,05,25,07,04,10.20
2006,05,25,07,05,10.20
2006,05,25,07,06,10.20
2006,05,25,07,07,10.30
2006,05,25,07,08,10.30
2006,05,25,07,09,10.30
2006,05,25,07,10,10.30
2006,05,25,07,11,10.30
2006,05,25,07,12,10.30
2006,05,25,07,13,10.40
2006,05,25,07,14,10.40
2006,05,25,07,15,10.40
2006,05,25,07,16,10.40
2006,05,25,07,17,10.40
2006,05,25,07,18,10.40
2006,05,25,07,19,10.40
2006,05,25,07,20,10.40
2006,05,25,07,21,10.40
2006,05,25,07,22,10.40
2006,05,25,07,23,10.40
2006,05,25,07,24,10.40
2006,05,25,07,25,10.40
2006,05,25,07,26,10.40
2006,05,25,07,27,10.40
2006,05,25,07,28,10.40
2006,05,25,07,29,10.40
2006,05,25,07,30,10.40
2006,05,25,07,31,10.50
2006,05,25,07,32,10.60
2006,05,25,07,33,10.60
2006,05,25,07,34,10.60
2006,05,25,07,35,10.60
2006,05,25,07,36,10.60
2006,05,25,07,37,10.60
2006,05,25,07,38,10.60
2006,05,25,07,39,10.70
2006,05,25,07,40,10.70
2006,05,25,07,41,10.70
2006,05,25,07,42,10.80
2006,05,25,07,43,10.80
2006,05,25,07,44,10.90
2006,05,25,07,45,10.90
2006,05,25,07,46,10.90
2006,05,25,07,47,10.90
2006,05,25,07,48,10.90
2006,05,25,07,49,10.90
2006,05,25,07,50,11.00
2006,05,25,07,51,11.10
2006,05,25,07,52,11.10
2006,05,25,07,53,11.10
2006,05,25,07,54,11.10
2006,05,25,07,55,11.10
2006,05,25,07,56,11.10
2006,05,25,07,57,11.10
2006,05,25,07,58,11.10
2006,05,25,07,59,11.10
2006,05,25,08,00,11.00
2006,05,25,08,01,11.10
2006,05,25,08,02,11.10
2006,05,25,08,03,11.10
2006,05,25,08,04,11.10
2006,05,25,08,05,11.10
2006,05,25,08,06,11.10
2006,05,25,08,07,11.20
2006,05,25,08,08,11.30
2006,05,25,08,09,11.30
2006,05,25,08,10,11.40
2006,05,25,08,11,11.50
2006,05,25,08,12,11.60
2006,05,25,08,13,11.60
2006,05,25,08,14,11.60
2006,05,25,08,15,11.60
2006,05,25,08,16,11.60
2006,05,25,08,17,11.70
2006,05,25,08,18,11.70
2006,05,25,08,19,11.70
2006,05,25,08,20,11.70
2006,05,25,08,21,11.80
2006,05,25,08,22,11.80
2006,05,25,08,23,11.80
2006,05,25,08,24,11.80
2006,05,25,08,25,11.90
2006,05,25,08,26,12.00
2006,05,25,08,27,12.00
2006,05,25,08,28,12.10
2006,05,25,08,29,12.20
2006,05,25,08,30,12.20
2006,05,25,08,31,12.30
2006,05,25,08,32,12.30
2006,05,25,08,33,12.30
2006,05,25,08,34,12.40
2006,05,25,08,35,12.40
2006,05,25,08,36,12.30
2006,05,25,08,37,12.30
2006,05,25,08,38,12.40
2006,05,25,08,39,12.40
2006,05,25,08,40,12.40
2006,05,25,08,41,12.40
2006,05,25,08,42,12.40
2006,05,25,08,43,12.30
2006,05,25,08,44,12.30
2006,05,25,08,45,12.40
2006,05,25,08,46,12.40
2006,05,25,08,47,12.40
2006,05,25,08,48,12.50
2006,05,25,08,49,12.50
2006,05,25,08,50,12.50
2006,05,25,08,51,12.50
2006,05,25,08,52,12.50
2006,05,25,08,53,12.60
2006,05,25,08,54,12.60
2006,05,25,08,55,12.60
2006,05,25,08,56,12.60
2006,05,25,08,57,12.70
2006,05,25,08,58,12.80
2006,05,25,08,59,12.80
2006,05,25,09,00,12.80
2006,05,25,09,01,12.80
2006,05,25,09,02,12.80
2006,05,25,09,03,12.80
2006,05,25,09,04,12.60
2006,05,25,09,05,12.60
2006,05,25,09,06,12.50
2006,05,25,09,07,12.50
2006,05,25,09,08,12.50
2006,05,25,09,09,12.40
2006,05,25,09,10,12.40
2006,05,25,09,11,12.40
2006,05,25,09,12,12.30
2006,05,25,09,13,12.30
2006,05,25,09,14,12.30
2006,05,25,09,15,12.30
2006,05,25,09,16,12.30
2006,05,25,09,17,12.30
2006,05,25,09,18,12.30
2006,05,25,09,19,12.30
2006,05,25,09,20,12.30
2006,05,25,09,21,12.40
2006,05,25,09,22,12.40
2006,05,25,09,23,12.40
2006,05,25,09,24,12.40
2006,05,25,09,25,12.40
2006,05,25,09,26,12.40
2006,05,25,09,27,12.40
2006,05,25,09,28,12.30
2006,05,25,09,29,12.30
2006,05,25,09,30,12.30
2006,05,25,09,31,12.30
2006,05,25,09,32,12.30
2006,05,25,09,33,12.30
2006,05,25,09,34,12.30
2006,05,25,09,35,12.30
2006,05,25,09,36,12.30
2006,05,25,09,37,12.20
2006,05,25,09,38,12.20
2006,05,25,09,39,12.20
2006,05,25,09,40,12.20
2006,05,25,09,41,12.30
2006,05,25,09,42,12.30
2006,05,25,09,43,12.30
2006,05,25,09,44,12.30
2006,05,25,09,45,12.40
2006,05,25,09,46,12.40
2006,05,25,09,47,12.50
2006,05,25,09,48,12.50
2006,05,25,09,49,12.60
2006,05,25,09,50,12.70
2006,05,25,09,51,12.70
2006,05,25,09,52,12.80
2006,05,25,09,53,12.90
2006,05,25,09,54,13.00
2006,05,25,09,55,13.10
2006,05,25,09,56,13.10
2006,05,25,09,57,13.10
2006,05,25,09,58,13.10
2006,05,25,09,59,13.20
2006,05,25,10,00,13.20
2006,05,25,10,01,13.30
2006,05,25,10,02,13.30
2006,05,25,10,03,13.30
2006,05,25,10,04,13.30
2006,05,25,10,05,13.30
2006,05,25,10,06,13.30
2006,05,25,10,07,13.30
2006,05,25,10,08,13.30
2006,05,25,10,09,13.20
2006,05,25,10,10,13.20
2006,05,25,10,11,13.20
2006,05,25,10,12,13.30
2006,05,25,10,13,13.40
2006,05,25,10,14,13.50
2006,05,25,10,15,13.60
2006,05,25,10,16,13.70
2006,05,25,10,17,13.70
2006,05,25,10,18,13.70
2006,05,25,10,19,13.70
2006,05,25,10,20,13.70
2006,05,25,10,21,13.70
2006,05,25,10,22,13.80
2006,05,25,10,23,13.60
2006,05,25,10,24,13.50
2006,05,25,10,25,13.40
2006,05,25,10,26,13.50
2006,05,25,10,27,13.50
2006,05,25,10,28,13.60
2006,05,25,10,29,13.60
2006,05,25,10,30,13.70
2006,05,25,10,31,13.70
2006,05,25,10,32,13.70
2006,05,25,10,33,13.60
2006,05,25,10,34,13.60
2006,05,25,10,35,13.50
2006,05,25,10,36,13.40
2006,05,25,10,37,13.40
2006,05,25,10,38,13.40
2006,05,25,10,39,13.50
2006,05,25,10,40,13.60
2006,05,25,10,41,13.60
2006,05,25,10,42,13.60
2006,05,25,10,43,13.50
2006,05,25,10,44,13.50
2006,05,25,10,45,13.60
2006,05,25,10,46,13.60
2006,05,25,10,47,13.70
2006,05,25,10,48,13.70
2006,05,25,10,49,13.80
2006,05,25,10,50,13.80
2006,05,25,10,51,13.90
2006,05,25,10,52,13.70
2006,05,25,10,53,13.60
2006,05,25,10,54,13.60
2006,05,25,10,55,13.50
2006,05,25,10,56,13.50
2006,05,25,10,57,13.50
2006,05,25,10,58,13.50
2006,05,25,10,59,13.50
2006,05,25,11,00,13.40
2006,05,25,11,01,13.50
2006,05,25,11,02,13.50
2006,05,25,11,03,13.50
2006,05,25,11,04,13.60
2006,05,25,11,05,13.70
2006,05,25,11,06,13.70
2006,05,25,11,07,13.80
2006,05,25,11,08,13.80
2006,05,25,11,09,13.80
2006,05,25,11,10,13.70
2006,05,25,11,11,13.70
2006,05,25,11,12,13.60
2006,05,25,11,13,13.70
2006,05,25,11,14,13.70
2006,05,25,11,15,13.80
2006,05,25,11,16,13.80
2006,05,25,11,17,13.80
2006,05,25,11,18,13.70
2006,05,25,11,19,13.70
2006,05,25,11,20,13.70
2006,05,25,11,21,13.70
2006,05,25,11,22,13.70
2006,05,25,11,23,13.70
2006,05,25,11,24,13.70
2006,05,25,11,25,13.70
2006,05,25,11,26,13.70
2006,05,25,11,27,13.70
2006,05,25,11,28,13.70
2006,05,25,11,29,13.70
2006,05,25,11,30,13.70
2006,05,25,11,31,13.70
2006,05,25,11,32,13.80
2006,05,25,11,33,13.70
2006,05,25,11,34,13.70
2006,05,25,11,35,13.50
2006,05,25,11,36,13.40
2006,05,25,11,37,13.30
2006,05,25,11,38,13.30
2006,05,25,11,39,13.30
2006,05,25,11,40,13.30
2006,05,25,11,41,13.30
2006,05,25,11,42,13.40
2006,05,25,11,43,13.40
2006,05,25,11,44,13.50
2006,05,25,11,45,13.50
2006,05,25,11,46,13.60
2006,05,25,11,47,13.70
2006,05,25,11,48,13.70
2006,05,25,11,49,13.70
2006,05,25,11,50,13.70
2006,05,25,11,51,13.60
2006,05,25,11,52,13.60
2006,05,25,11,53,13.60
2006,05,25,11,54,13.50
2006,05,25,11,55,13.50
2006,05,25,11,56,13.50
2006,05,25,11,57,13.60
2006,05,25,11,58,13.60
2006,05,25,11,59,13.70
2006,05,25,12,00,13.70
2006,05,25,12,01,13.70
2006,05,25,12,02,13.70
2006,05,25,12,03,13.70
2006,05,25,12,04,13.70
2006,05,25,12,05,13.80
2006,05,25,12,06,13.90
2006,05,25,12,07,14.00
2006,05,25,12,08,14.10
2006,05,25,12,09,14.00
2006,05,25,12,10,13.90
2006,05,25,12,11,13.80
2006,05,25,12,12,13.80
2006,05,25,12,13,13.80
2006,05,25,12,14,13.80
2006,05,25,12,15,13.70
2006,05,25,12,16,13.70
2006,05,25,12,17,13.80
2006,05,25,12,18,13.80
2006,05,25,12,19,13.80
2006,05,25,12,20,13.90
2006,05,25,12,21,13.90
2006,05,25,12,22,14.00
2006,05,25,12,23,14.10
2006,05,25,12,24,14.20
2006,05,25,12,25,14.20
2006,05,25,12,26,14.20
2006,05,25,12,27,14.20
2006,05,25,12,28,14.20
2006,05,25,12,29,14.20
2006,05,25,12,30,14.00
2006,05,25,12,31,13.90
2006,05,25,12,32,13.90
2006,05,25,12,33,13.90
2006,05,25,12,34,13.90
2006,05,25,12,35,14.00
2006,05,25,12,36,14.10
2006,05,25,12,37,14.20
2006,05,25,12,38,14.20
2006,05,25,12,39,14.20
2006,05,25,12,40,14.30
2006,05,25,12,41,14.40
2006,05,25,12,42,14.40
2006,05,25,12,43,14.40
2006,05,25,12,44,14.10
2006,05,25,12,45,13.90
2006,05,25,12,46,13.80
2006,05,25,12,47,13.80
2006,05,25,12,48,13.80
2006,05,25,12,49,14.00
2006,05,25,12,50,14.10
2006,05,25,12,51,14.10
2006,05,25,12,52,14.00
2006,05,25,12,53,13.90
2006,05,25,12,54,13.80
2006,05,25,12,55,13.80
2006,05,25,12,56,13.90
2006,05,25,12,57,13.90
2006,05,25,12,58,14.00
2006,05,25,12,59,14.20
2006,05,25,13,00,14.30
2006,05,25,13,01,14.40
2006,05,25,13,02,14.50
2006,05,25,13,03,14.60
2006,05,25,13,04,14.60
2006,05,25,13,05,14.60
2006,05,25,13,06,14.50
2006,05,25,13,07,14.60
2006,05,25,13,08,14.60
2006,05,25,13,09,14.60
2006,05,25,13,10,14.50
2006,05,25,13,11,14.40
2006,05,25,13,12,14.30
2006,05,25,13,13,14.30
2006,05,25,13,14,14.30
2006,05,25,13,15,14.20
2006,05,25,13,16,14.20
2006,05,25,13,17,14.20
2006,05,25,13,18,14.20
2006,05,25,13,19,14.30
2006,05,25,13,20,14.30
2006,05,25,13,21,14.40
2006,05,25,13,22,14.40
2006,05,25,13,23,14.50
2006,05,25,13,24,14.60
2006,05,25,13,25,14.70
2006,05,25,13,26,14.70
2006,05,25,13,27,14.60
2006,05,25,13,28,14.60
2006,05,25,13,29,14.60
2006,05,25,13,30,14.50
2006,05,25,13,31,14.40
2006,05,25,13,32,14.40
2006,05,25,13,33,14.30
2006,05,25,13,34,14.40
2006,05,25,13,35,14.40
2006,05,25,13,36,14.50
2006,05,25,13,37,14.60
2006,05,25,13,38,14.60
2006,05,25,13,39,14.60
2006,05,25,13,40,14.50
2006,05,25,13,41,14.50
2006,05,25,13,42,14.40
2006,05,25,13,43,14.40
2006,05,25,13,44,14.40
2006,05,25,13,45,14.40
2006,05,25,13,46,14.50
2006,05,25,13,47,14.50
2006,05,25,13,48,14.40
2006,05,25,13,49,14.40
2006,05,25,13,50,14.50
2006,05,25,13,51,14.50
2006,05,25,13,52,14.60
2006,05,25,13,53,14.60
2006,05,25,13,54,14.70
2006,05,25,13,55,14.70
2006,05,25,13,56,14.70
2006,05,25,13,57,14.70
2006,05,25,13,58,14.70
2006,05,25,13,59,14.80
2006,05,25,14,00,14.80
2006,05,25,14,01,14.90
2006,05,25,14,02,15.00
2006,05,25,14,03,15.10
2006,05,25,14,04,15.20
2006,05,25,14,05,15.30
2006,05,25,14,06,15.30
2006,05,25,14,07,15.30
2006,05,25,14,08,15.40
2006,05,25,14,09,15.50
2006,05,25,14,10,15.60
2006,05,25,14,11,15.60
2006,05,25,14,12,15.60
2006,05,25,14,13,15.60
2006,05,25,14,14,15.60
2006,05,25,14,15,15.70
2006,05,25,14,16,15.70
2006,05,25,14,17,15.80
2006,05,25,14,18,15.70
2006,05,25,14,19,15.60
2006,05,25,14,20,15.60
2006,05,25,14,21,15.60
2006,05,25,14,22,15.60
2006,05,25,14,23,15.60
2006,05,25,14,24,15.60
2006,05,25,14,25,15.60
2006,05,25,14,26,15.60
2006,05,25,14,27,15.60
2006,05,25,14,28,15.60
2006,05,25,14,29,15.70
2006,05,25,14,30,15.80
2006,05,25,14,31,15.70
2006,05,25,14,32,15.60
2006,05,25,14,33,15.50
2006,05,25,14,34,15.40
2006,05,25,14,35,15.30
2006,05,25,14,36,15.30
2006,05,25,14,37,15.20
2006,05,25,14,38,15.20
2006,05,25,14,39,15.20
2006,05,25,14,40,15.30
2006,05,25,14,41,15.40
2006,05,25,14,42,15.50
2006,05,25,14,43,15.50
2006,05,25,14,44,15.50
2006,05,25,14,45,15.50
2006,05,25,14,46,15.50
2006,05,25,14,47,15.50
2006,05,25,14,48,15.50
2006,05,25,14,49,15.60
2006,05,25,14,50,15.50
2006,05,25,14,51,15.50
2006,05,25,14,52,15.50
2006,05,25,14,53,15.60
2006,05,25,14,54,15.60
2006,05,25,14,55,15.70
2006,05,25,14,56,15.80
2006,05,25,14,57,15.80
2006,05,25,14,58,15.80
2006,05,25,14,59,15.80
2006,05,25,15,00,15.90
2006,05,25,15,01,15.90
2006,05,25,15,02,16.00
2006,05,25,15,03,16.10
2006,05,25,15,04,16.10
2006,05,25,15,05,16.10
2006,05,25,15,06,16.10
2006,05,25,15,07,16.00
2006,05,25,15,08,15.90
2006,05,25,15,09,16.00
2006,05,25,15,10,16.10
2006,05,25,15,11,16.10
2006,05,25,15,12,16.10
2006,05,25,15,13,16.10
2006,05,25,15,14,16.20
2006,05,25,15,15,16.30
2006,05,25,15,16,16.20
2006,05,25,15,17,16.10
2006,05,25,15,18,15.90
2006,05,25,15,19,15.70
2006,05,25,15,20,15.70
2006,05,25,15,21,15.70
2006,05,25,15,22,15.80
2006,05,25,15,23,15.80
2006,05,25,15,24,15.80
2006,05,25,15,25,15.80
2006,05,25,15,26,15.80
2006,05,25,15,27,15.80
2006,05,25,15,28,15.80
2006,05,25,15,29,15.60
2006,05,25,15,30,15.50
2006,05,25,15,31,15.40
2006,05,25,15,32,15.30
2006,05,25,15,33,15.40
2006,05,25,15,34,15.40
2006,05,25,15,35,15.40
2006,05,25,15,36,15.40
2006,05,25,15,37,15.30
2006,05,25,15,38,15.30
2006,05,25,15,39,15.10
2006,05,25,15,40,15.10
2006,05,25,15,41,15.00
2006,05,25,15,42,15.00
2006,05,25,15,43,14.90
2006,05,25,15,44,14.90
2006,05,25,15,45,14.90
2006,05,25,15,46,14.80
2006,05,25,15,47,14.80
2006,05,25,15,48,14.80
2006,05,25,15,49,14.80
2006,05,25,15,50,14.70
2006,05,25,15,51,14.60
2006,05,25,15,52,14.50
2006,05,25,15,53,14.30
2006,05,25,15,54,14.30
2006,05,25,15,55,14.30
2006,05,25,15,56,14.40
2006,05,25,15,57,14.30
2006,05,25,15,58,14.20
2006,05,25,15,59,14.20
2006,05,25,16,00,14.20
2006,05,25,16,01,14.10
2006,05,25,16,02,14.00
2006,05,25,16,03,13.90
2006,05,25,16,04,13.80
2006,05,25,16,05,13.70
2006,05,25,16,06,13.70
2006,05,25,16,07,13.70
2006,05,25,16,08,13.80
2006,05,25,16,09,13.80
2006,05,25,16,10,13.80
2006,05,25,16,11,13.80
2006,05,25,16,12,13.80
2006,05,25,16,13,13.80
2006,05,25,16,14,13.80
2006,05,25,16,15,13.80
2006,05,25,16,16,13.70
2006,05,25,16,17,13.70
2006,05,25,16,18,13.70
2006,05,25,16,19,13.60
2006,05,25,16,20,13.60
2006,05,25,16,21,13.60
2006,05,25,16,22,13.60
2006,05,25,16,23,13.60
2006,05,25,16,24,13.60
2006,05,25,16,25,13.60
2006,05,25,16,26,13.60
2006,05,25,16,27,13.60
2006,05,25,16,28,13.60
2006,05,25,16,29,13.60
2006,05,25,16,30,13.70
2006,05,25,16,31,13.70
2006,05,25,16,32,13.80
2006,05,25,16,33,13.80
2006,05,25,16,34,13.80
2006,05,25,16,35,13.80
2006,05,25,16,36,13.80
2006,05,25,16,37,13.80
2006,05,25,16,38,13.80
2006,05,25,16,39,13.90
2006,05,25,16,40,14.00
2006,05,25,16,41,14.10
2006,05,25,16,42,14.20
2006,05,25,16,43,14.20
2006,05,25,16,44,14.30
2006,05,25,16,45,14.40
2006,05,25,16,46,14.50
2006,05,25,16,47,14.60
2006,05,25,16,48,14.50
2006,05,25,16,49,14.50
2006,05,25,16,50,14.50
2006,05,25,16,51,14.40
2006,05,25,16,52,14.40
2006,05,25,16,53,14.40
2006,05,25,16,54,14.50
2006,05,25,16,55,14.50
2006,05,25,16,56,14.50
2006,05,25,16,57,14.50
2006,05,25,16,58,14.60
2006,05,25,16,59,14.60
2006,05,25,17,00,14.60
2006,05,25,17,01,14.70
2006,05,25,17,02,14.80
2006,05,25,17,03,14.80
2006,05,25,17,04,14.90
2006,05,25,17,05,15.00
2006,05,25,17,06,15.00
2006,05,25,17,07,15.00
2006,05,25,17,08,15.00
2006,05,25,17,09,15.00
2006,05,25,17,10,14.90
2006,05,25,17,11,14.90
2006,05,25,17,12,14.80
2006,05,25,17,13,14.80
2006,05,25,17,14,14.80
2006,05,25,17,15,14.90
2006,05,25,17,16,15.00
2006,05,25,17,17,15.00
2006,05,25,17,18,15.00
2006,05,25,17,19,15.00
2006,05,25,17,20,14.90
2006,05,25,17,21,14.90
2006,05,25,17,22,14.90
2006,05,25,17,23,14.90
2006,05,25,17,24,14.90
2006,05,25,17,25,14.90